STARLINK-5662

decayed
NORAD ID: 55344 Int'l Des: 2023-013 Owner: SPXS Country: US Constellation: starlink
LEOCIRCULAR

关于 STARLINK-5662

正在加载描述...

高度历史

Altitude vs Time

uPlot chart will show altitude changes over time

两行轨道根数

1 55344U 23013P 24333.23744148 .14702246 89571-5 28431-2 0 9999
2 55344 42.9786 282.3050 0010479 167.9358 332.2582 16.30612604102343
Epoch: Nov 28, 2024 • Age: 7001 hours

当前状态

Position data unavailable
发射日期 Jan 26, 2023
运行时间 2.6 years
衰减日期 Nov 28, 2024
类型 internet

技术详情

分类 Payload
质量 305.00 kg
干质量 290.00 kg
总质量 305.00 kg
长度 0.20 m
直径 2.80 m
跨度 9.00 m
形状 Box + pan
制造商 SPXS
平台类型 Starlink
阶段状态 Reentered
所有者/国家 SPXS/US

大型星座

Loading constellations...